Flag for Netherlands Weather past 2 weeks in Leiden, Netherlands

Now
57 °F

Partly sunny.


Feels Like: 53 °F
Forecast: 53 / 64 °F
Wind: 18 mph from Southwest

Location: Rotterdam Zestienhoven Airport

Current Time: May 4, 2015 at 11:01:39 AM

Latest Report: May 4, 2015 at 10:30 AM


Visibility: N/A

Pressure: 29.71 "Hg

Humidity: 77%

Dew point: 50 °F

Location of LeidenLocation

Historic Weather in Leiden — Graph

°F

Leiden temperature yesterday

Maximum temperature yesterday: 63 °F (at 6:25 PM)
Minimum temperature yesterday: 48 °F (at 3:55 AM)
Average temperature yesterday: 55 °F

Past Weeks' High & Low Weather Summary

 TemperatureHumidityPressure
High66 °F (Apr 24, 2:55 PM)100% (Apr 20, 12:55 AM)30.51 "Hg (Apr 20, 12:55 AM)
Low34 °F (Apr 28, 1:55 AM)39% (Apr 21, 4:55 PM)29.47 "Hg (May 3, 4:55 PM)
Average50 °F76%29.97 "Hg
* Reported Apr 19 9:25 AM — May 4 9:55 AM, Leiden, Weather by CustomWeather, © 2015

Note: Actual official high and low records may vary slightly from our data, if they occured in-between our weather recording intervals... More about our weather records

Advertising

Leiden weather history for previous 24 hours

 ConditionsComfort  
Time TempWeatherWind HumidityBarometerVisibility
9:55 AM
Mon, May 4
57 °FCloudy.16 mph82%29.71 "HgN/A
9:25 AM57 °FMostly cloudy.17 mph82%29.71 "HgN/A
8:55 AM57 °FMostly cloudy.15 mph82%29.71 "HgN/A
8:25 AM55 °FOvercast.14 mph88%29.68 "HgN/A
7:55 AM57 °FOvercast.16 mph82%29.68 "HgN/A
7:25 AM55 °FOvercast.15 mph88%29.68 "HgN/A
6:55 AM55 °FPassing clouds.14 mph82%29.65 "HgN/A
6:25 AM54 °FPassing clouds.16 mph88%29.65 "HgN/A
5:55 AM54 °FCool.16 mph88%29.65 "HgN/A
5:25 AM54 °FPassing clouds.14 mph88%29.65 "HgN/A
4:55 AM55 °FMostly cloudy.14 mph82%29.65 "HgN/A
4:25 AM54 °FPassing clouds.15 mph88%29.65 "HgN/A
3:55 AM54 °FOvercast.15 mph88%29.65 "HgN/A
3:25 AM54 °FPassing clouds.14 mph88%29.65 "HgN/A
2:55 AM54 °FCool.15 mph88%29.62 "HgN/A
2:25 AM54 °FPassing clouds.16 mph88%29.62 "HgN/A
1:55 AM55 °FPassing clouds.14 mph82%29.62 "HgN/A
1:25 AM55 °FCool.17 mph77%29.62 "HgN/A
12:55 AM55 °FCool.18 mph77%29.59 "HgN/A
12:25 AM55 °FClear.20 mph82%29.59 "HgN/A
11:55 PM
Sun, May 3
55 °FCool.16 mph82%29.59 "HgN/A
11:25 PM55 °FCool.20 mph82%29.59 "HgN/A
10:55 PM57 °FCool.21 mph77%29.59 "HgN/A
10:25 PM57 °FCool.18 mph82%29.56 "HgN/A
9:55 PM57 °FCool.22 mph82%29.56 "HgN/A
9:25 PM57 °FCool.18 mph82%29.53 "HgN/A
8:55 PM57 °FCool.22 mph82%29.53 "HgN/A
8:25 PM59 °FClear.22 mph82%29.53 "HgN/A
7:55 PM59 °FPassing clouds.22 mph82%29.50 "HgN/A
7:25 PM61 °FClear.20 mph77%29.50 "HgN/A
6:55 PM63 °FPassing clouds.21 mph77%29.50 "HgN/A
6:25 PM63 °FBroken clouds.17 mph83%29.50 "HgN/A
5:55 PM61 °FDrizzle. Broken clouds.16 mph94%29.47 "HgN/A
5:25 PM61 °FLight rain. Broken clouds.14 mph94%29.47 "HgN/A
4:55 PM61 °FCloudy.14 mph94%29.47 "Hg4 mi
4:25 PM61 °FMostly cloudy.12 mph94%29.50 "HgN/A
3:55 PM61 °FBroken clouds.13 mph94%29.50 "HgN/A
3:25 PM59 °FFog.13 mph100%29.50 "Hg2 mi
2:55 PM59 °FSprinkles. Broken clouds.13 mph94%29.50 "Hg1 mi
2:25 PM57 °FDrizzle. Mostly cloudy.12 mph100%29.53 "Hg1 mi
1:55 PM57 °FDrizzle. Broken clouds.13 mph100%29.53 "Hg3 mi
1:25 PM57 °FDrizzle. Mostly cloudy.15 mph94%29.53 "Hg3 mi
12:55 PM59 °FMore clouds than sun.12 mph82%29.53 "HgN/A
12:25 PM57 °FMore clouds than sun.14 mph88%29.53 "HgN/A
11:55 AM57 °FFog.9 mph88%29.53 "Hg3 mi
11:25 AM57 °FLight rain. Mostly cloudy.13 mph82%29.56 "Hg3 mi
Weather by CustomWeather, © 2015

See weather overviewHow to use our weather pages